Theta_e
309 312 314 314 311 309 309 310 311 313 312 314 314 313 311 310 311 313 315 316 316 315 313 317 313 320 344 351 350 350 345 344 346 345 342 339 339 339 338 339 339 338 337 335 334 335 335 336 338 338 339 339 338 338 338 338 337 337 337 336 338 339 338 339 340 340 340 341 341 340 341 341 340 340 339 338 338 337 337 336 337 337 336 336 335 335
309 312 313 312 311 310 310 311 312 313 312 313 313 312 312 311 312 314 315 315 316 315 314 317 313 322 345 348 348 351 347 347 351 350 344 339 340 339 337 339 339 337 336 335 334 335 335 336 337 337 338 338 337 338 338 338 338 338 338 337 339 339 339 340 340 340 341 341 340 340 341 340 338 338 338 337 337 336 336 337 336 336 335 335 334 333
309 311 312 312 311 310 310 311 312 313 313 313 313 312 311 312 313 313 316 315 315 316 314 316 313 321 343 348 346 350 347 345 346 345 342 340 341 339 337 339 338 337 337 336 335 335 336 336 337 337 338 338 337 337 339 339 339 340 340 340 340 341 340 340 340 340 341 340 341 340 340 339 337 336 337 336 336 336 336 336 336 335 334 334 333 332
311 311 312 312 311 310 311 311 312 312 313 313 313 311 311 312 312 311 314 315 315 318 317 318 313 317 339 347 346 349 346 343 341 340 339 339 341 339 338 338 337 337 337 336 335 335 336 336 337 337 337 337 336 337 339 340 341 341 341 341 341 341 341 341 340 340 340 340 340 340 339 337 336 336 336 336 336 336 336 335 335 335 334 334 333 332
312 311 311 311 310 311 311 311 312 312 313 313 312 312 311 311 312 311 315 316 315 318 319 318 312 314 337 349 349 349 346 342 341 341 341 339 339 338 337 338 337 337 336 336 336 336 336 336 336 336 336 337 336 337 338 340 341 341 341 341 341 341 341 341 341 340 340 340 339 338 337 336 335 336 337 337 337 336 336 335 334 333 333 333 332 331
312 311 311 311 311 311 312 312 312 312 312 313 313 313 312 312 314 313 316 315 313 314 316 317 311 313 335 347 348 348 345 343 341 340 340 338 338 338 337 338 338 337 336 335 336 336 336 337 336 336 336 337 336 336 338 339 341 341 342 341 341 341 341 340 340 340 340 339 338 337 336 335 335 336 337 338 337 336 336 335 334 333 332 331 329 329
312 311 310 310 311 311 312 311 311 312 311 311 313 313 314 313 313 313 314 314 313 314 317 319 314 315 332 341 342 347 346 344 341 339 338 337 338 339 337 337 337 338 337 336 336 337 337 337 337 337 337 337 337 337 337 338 340 341 341 341 340 339 340 339 339 339 339 338 338 336 335 335 336 337 337 337 337 337 336 335 334 332 330 329 329 329
312 311 310 310 311 311 311 311 311 312 310 310 313 313 314 313 313 313 314 313 316 319 317 317 315 315 329 341 341 346 347 347 345 340 339 339 339 340 340 339 338 338 339 338 337 338 338 338 337 337 338 338 339 339 339 339 340 342 341 340 340 339 339 339 338 338 337 337 336 335 335 335 336 337 336 336 336 336 335 334 332 330 329 329 329 329
312 311 310 310 311 310 311 311 312 312 311 312 314 314 314 313 314 315 315 314 315 316 312 315 315 310 325 345 346 345 347 349 348 343 341 340 340 341 341 341 340 338 338 338 338 340 339 338 338 338 339 340 341 340 340 340 341 341 341 340 340 339 339 338 338 337 337 337 335 335 335 335 336 336 335 336 336 335 334 332 331 330 329 330 330 329
312 312 310 310 310 310 311 312 312 312 312 313 314 315 314 314 317 316 316 314 313 316 314 314 313 309 326 348 346 343 347 346 347 344 341 340 339 340 339 339 340 338 338 338 338 340 339 338 338 338 340 341 341 341 340 341 340 340 340 340 339 339 338 338 338 337 336 335 335 335 335 335 334 334 335 335 334 333 332 331 331 330 330 330 330 329
312 313 312 311 311 311 313 313 313 312 313 314 313 313 314 316 318 317 319 315 312 319 318 313 312 310 325 346 345 342 345 343 344 343 341 339 338 338 337 337 338 338 339 338 338 338 338 339 338 338 340 341 340 340 339 340 340 340 340 339 339 339 338 338 337 336 335 334 334 334 334 334 333 334 335 335 334 332 330 331 331 330 329 330 329 328
312 312 312 312 312 312 313 313 313 313 313 314 313 313 314 314 314 313 316 316 316 321 318 313 314 308 316 338 344 340 340 340 342 343 341 339 337 336 336 335 336 338 339 338 337 337 337 338 338 339 340 340 340 340 339 340 340 340 340 339 339 339 338 336 335 335 334 334 334 334 334 334 334 335 335 334 333 332 331 331 331 329 329 329 328 327
311 312 312 312 314 313 313 313 313 314 313 313 313 312 313 313 312 313 315 316 318 321 317 310 314 310 313 331 342 339 338 338 340 342 340 339 337 335 335 334 335 337 339 338 338 338 337 338 339 339 340 340 340 340 340 341 340 339 339 339 339 339 338 336 334 334 334 334 334 334 334 334 334 334 333 332 332 331 331 331 330 329 328 328 326 325
313 312 311 312 313 313 313 312 311 311 312 312 311 312 315 314 313 315 317 318 319 320 317 312 313 313 312 322 337 339 337 337 338 339 339 339 338 335 335 335 335 337 338 338 340 340 339 338 338 339 340 340 340 340 340 340 340 339 339 339 339 338 337 335 335 335 334 334 334 334 334 334 333 332 331 331 331 330 329 329 329 328 327 326 325 323
314 313 311 312 312 313 314 312 312 312 312 312 311 313 315 315 318 320 317 317 319 317 315 314 313 313 314 322 334 338 337 336 336 337 338 338 337 335 335 335 335 336 336 337 340 341 339 338 338 339 339 339 339 340 340 339 340 339 339 339 337 336 335 334 335 335 334 334 334 334 334 333 332 331 330 329 329 329 328 327 327 327 326 325 323 323
313 312 311 313 313 312 313 312 313 313 311 313 313 311 313 316 322 322 317 317 319 317 317 317 315 316 323 330 333 334 337 336 335 337 338 338 337 335 336 336 335 335 335 337 340 340 339 338 338 339 339 339 339 339 339 339 339 339 338 337 336 334 335 335 335 334 333 333 333 333 333 331 331 330 329 328 328 327 327 326 326 326 325 324 323 323
314 314 311 313 313 311 313 313 313 313 313 314 312 310 313 317 319 318 317 317 318 320 323 318 314 318 324 329 332 334 337 335 336 340 339 339 338 336 337 337 335 335 334 337 340 340 339 339 339 339 339 338 338 339 339 339 339 338 337 335 335 335 335 335 334 333 332 332 332 332 331 331 330 329 328 328 327 326 326 325 325 325 324 323 323 322
317 316 313 312 313 312 313 314 312 314 314 313 311 311 314 315 316 321 320 316 316 321 322 316 313 315 316 322 332 337 337 334 336 340 341 341 339 338 337 336 335 335 335 337 341 340 340 339 339 339 338 338 338 338 338 338 338 337 335 334 335 335 334 333 333 333 332 332 331 330 330 329 329 328 327 327 326 325 325 324 324 323 323 322 322 322
318 317 313 311 314 312 312 314 314 314 313 312 312 313 315 316 316 319 319 318 318 318 319 318 315 315 315 320 328 331 334 336 337 341 342 342 341 341 340 338 337 336 336 338 340 340 340 339 338 339 338 338 338 338 338 337 337 336 335 334 334 333 332 332 331 331 331 330 329 329 328 328 327 326 326 325 325 324 324 323 323 322 321 322 322 322
320 320 316 312 314 314 312 314 313 314 313 312 314 313 314 318 318 316 317 320 321 319 320 319 316 316 320 325 328 329 333 338 339 342 342 341 342 342 341 340 338 337 339 340 338 338 339 339 338 338 338 338 337 337 337 337 336 335 334 334 333 331 331 330 330 330 329 328 328 327 327 326 326 325 324 324 324 323 323 322 321 321 321 322 322 323
319 323 320 313 313 314 312 313 313 313 312 310 313 313 311 314 315 316 317 315 317 322 322 319 319 323 328 329 330 330 334 338 339 340 340 340 342 343 342 342 340 340 342 340 337 337 337 337 338 338 337 338 337 337 336 336 335 335 334 333 331 330 330 329 328 328 327 327 326 326 326 325 325 324 324 324 323 323 322 321 321 321 321 322 322 322
323 325 322 315 313 313 311 313 313 312 312 312 314 314 313 314 313 314 317 313 313 321 322 321 325 330 333 330 329 329 333 336 336 337 339 339 341 343 344 343 342 342 342 339 337 334 332 333 337 338 337 337 336 335 335 334 334 334 333 332 330 329 329 328 327 326 326 326 325 325 325 324 324 323 323 323 322 322 321 320 320 321 321 321 320 320
329 327 321 316 313 312 312 313 312 313 313 312 314 315 314 315 313 315 322 320 313 315 319 319 320 333 347 342 332 331 333 334 335 336 338 338 340 343 343 342 343 342 341 339 336 333 331 332 335 336 336 336 335 334 334 334 334 333 331 331 329 328 327 326 326 325 325 325 324 324 324 323 323 322 322 321 321 321 320 320 320 321 321 320 319 319
324 321 319 316 313 312 312 312 312 313 313 313 314 314 313 314 315 321 330 328 318 316 320 317 314 330 356 350 335 334 332 332 335 336 337 340 341 343 342 342 343 342 341 339 335 332 331 331 333 334 335 335 335 334 334 333 332 331 330 329 328 327 326 326 325 325 324 324 323 323 323 322 321 321 321 321 320 320 319 320 320 320 320 319 318 318
319 320 322 319 315 314 313 313 314 312 313 315 315 313 314 314 314 318 323 322 319 319 321 321 319 330 350 345 334 337 338 336 335 336 338 341 342 343 342 341 342 341 340 338 334 332 330 329 331 333 334 334 334 334 333 332 331 330 329 328 327 326 326 325 325 324 323 323 322 322 322 321 321 321 320 320 319 319 319 319 319 319 319 318 317 317
319 323 326 324 321 319 316 314 314 313 312 315 316 313 314 313 311 318 323 321 320 319 318 325 332 338 345 341 334 339 345 342 340 340 340 341 341 343 343 342 341 341 339 336 334 333 331 330 331 332 332 333 334 334 333 332 330 329 328 327 326 326 325 324 324 323 322 322 322 322 321 321 320 320 319 319 319 319 320 319 319 318 317 317 316 316
319 322 323 325 325 322 317 313 313 314 313 313 314 313 314 314 314 320 325 325 325 320 315 325 338 337 335 336 337 342 346 344 344 344 343 342 343 342 342 341 341 340 338 335 334 333 332 331 331 332 332 332 333 333 332 331 330 328 327 326 325 324 324 323 323 322 322 322 322 321 321 320 320 319 319 319 319 319 319 319 318 317 316 316 316 315
322 321 320 322 323 320 316 314 315 315 313 313 315 314 314 315 316 318 321 327 333 327 320 328 341 337 331 335 343 345 345 344 345 346 345 345 343 341 340 339 339 338 337 335 333 332 331 331 331 331 331 332 332 332 331 330 329 327 326 325 324 323 323 322 322 321 321 321 321 320 320 319 319 319 318 319 318 319 319 318 317 316 316 316 315 313
325 323 322 321 321 319 315 315 316 314 313 313 315 317 317 315 317 321 323 327 335 335 331 335 340 339 334 335 343 346 344 343 343 343 343 342 341 340 338 337 337 336 336 334 333 331 330 330 331 330 330 331 331 331 330 329 327 326 324 323 323 322 322 321 321 320 320 320 320 319 319 319 319 318 317 317 318 318 318 317 316 315 315 314 312 311
326 323 321 320 321 323 320 317 315 312 313 314 314 317 319 317 320 326 325 327 331 331 334 338 336 335 334 334 340 343 341 341 341 339 340 340 340 339 337 336 336 335 335 334 333 332 330 330 330 329 330 331 331 330 329 327 326 324 323 322 322 321 321 321 320 320 320 319 319 319 318 318 318 317 317 317 317 317 316 316 315 314 313 312 311 309
327 324 321 318 319 322 324 323 319 313 313 315 314 316 319 319 320 322 322 324 325 322 327 334 329 329 334 335 337 339 338 339 340 339 339 339 337 337 337 336 335 334 334 334 333 332 330 329 329 329 329 330 330 328 327 326 324 323 322 322 321 321 320 320 320 320 319 319 318 318 318 317 317 316 316 317 316 316 315 315 314 313 312 311 310 308
327 326 323 322 319 319 325 326 325 324 320 316 315 317 320 321 320 320 322 324 323 320 321 323 322 329 338 338 336 337 337 338 340 340 339 337 335 337 336 334 334 334 333 333 332 331 330 329 329 329 329 329 328 327 326 325 323 322 321 321 320 320 320 319 319 319 319 318 318 317 317 317 316 316 316 316 316 316 315 314 313 312 311 310 309 307
324 322 323 329 327 322 323 324 327 333 326 319 322 324 322 322 321 320 322 325 326 327 326 324 325 332 339 339 338 338 338 338 339 341 341 338 336 336 334 333 334 333 333 333 331 330 329 329 329 329 329 328 327 326 325 324 323 322 321 320 320 319 319 319 319 319 318 318 317 317 317 316 317 317 317 316 316 315 314 313 313 312 310 309 308 307
322 320 322 330 328 322 324 330 335 335 329 326 333 333 327 326 326 324 325 327 328 328 329 333 334 334 336 339 341 341 341 341 340 340 341 340 338 336 334 333 333 332 332 332 330 329 329 329 330 329 328 327 326 325 324 323 322 321 320 320 319 319 319 318 318 318 318 318 317 317 316 316 317 317 316 316 315 314 313 313 312 311 309 308 307 306
322 321 322 326 326 324 330 339 338 331 328 334 339 336 332 331 330 330 330 330 330 326 326 334 339 339 338 339 341 342 344 346 343 341 340 339 338 336 334 332 332 331 332 332 331 330 330 330 329 328 326 326 325 324 323 322 321 320 319 319 319 318 318 318 318 318 318 317 317 316 317 316 316 316 316 315 314 314 313 312 311 310 308 307 305 304
324 324 321 322 329 331 330 334 334 327 327 337 339 336 338 336 331 325 321 323 328 328 326 329 335 339 340 338 340 343 344 345 343 341 339 337 336 335 333 332 332 331 331 331 331 332 331 329 328 326 325 324 323 322 321 321 320 319 318 318 318 318 317 317 317 318 317 317 317 316 316 316 316 316 315 314 314 313 312 311 310 308 307 306 305 304
323 323 321 320 329 336 329 328 334 330 328 336 336 334 337 335 330 329 327 327 330 329 326 326 330 337 340 337 339 340 340 342 342 340 339 339 336 334 332 332 332 332 332 331 331 331 329 327 326 325 324 323 321 321 320 319 319 318 317 317 317 317 317 316 317 317 317 317 317 316 316 316 315 315 314 314 313 312 311 310 309 308 307 305 304 303
319 320 326 326 326 333 334 331 333 331 332 338 336 333 336 335 335 339 337 333 332 329 326 322 328 337 340 336 337 338 337 341 343 340 340 342 340 336 333 333 333 332 331 331 329 328 327 325 325 324 322 321 320 319 319 317 317 316 316 316 316 316 316 316 317 317 317 317 317 317 316 315 315 314 314 313 312 311 310 309 308 307 306 305 304 303
318 318 331 333 324 325 330 329 327 327 332 338 335 332 335 336 337 336 329 327 332 334 332 324 325 334 337 335 336 337 337 342 343 340 340 341 340 337 334 334 332 330 329 329 328 326 325 324 323 322 321 319 318 317 317 316 315 315 315 315 315 315 316 316 317 317 317 317 316 316 315 315 314 314 313 312 311 310 309 308 307 306 305 305 303 302
320 320 327 329 323 323 325 323 324 327 331 336 335 331 332 335 333 328 325 330 336 336 336 333 328 331 335 335 335 334 337 343 343 338 338 339 337 335 332 331 330 328 328 328 327 325 324 323 321 320 319 318 317 317 316 315 315 315 315 315 315 315 316 316 317 317 317 316 316 315 315 314 314 313 312 311 310 309 309 308 307 306 305 304 302 301
320 320 322 322 322 324 324 322 325 329 332 335 335 332 331 333 331 327 329 336 338 336 337 339 333 331 334 335 336 336 338 341 339 335 336 337 336 333 329 327 328 328 327 327 326 324 323 322 321 320 319 318 317 316 316 315 315 315 315 315 315 315 316 317 317 317 316 316 315 315 314 314 313 312 311 310 309 309 308 307 306 305 304 303 303 302
320 319 319 320 320 321 324 325 328 331 332 332 332 332 332 333 332 330 332 336 336 335 335 336 335 336 337 337 339 340 339 337 336 334 335 336 335 332 328 327 327 327 326 325 324 322 322 321 321 320 319 318 317 317 316 316 315 315 315 315 315 315 316 317 317 316 316 315 314 314 314 313 312 311 310 309 309 308 307 306 305 304 303 303 303 301
321 320 319 320 319 318 321 322 326 332 334 331 331 332 333 334 335 335 334 334 335 335 333 333 335 339 341 340 339 339 337 335 335 334 333 333 332 330 328 327 326 326 325 324 322 322 322 321 320 319 319 318 317 317 317 316 315 315 315 315 315 316 316 316 316 316 315 314 314 313 312 311 311 310 309 308 307 306 306 305 304 304 303 303 301 298
321 321 321 321 320 320 322 321 324 331 333 333 334 333 332 334 335 336 335 335 336 335 334 335 336 338 341 340 338 337 336 335 335 334 332 331 330 329 328 327 325 325 324 323 322 322 322 321 320 319 318 318 317 317 316 316 315 315 315 315 315 316 316 315 315 314 314 313 312 311 310 310 310 309 308 307 306 306 305 305 304 303 302 301 299 298
324 323 324 326 325 327 329 329 329 331 331 333 335 334 333 335 335 335 336 336 335 335 335 338 339 338 340 340 337 336 336 334 334 333 330 329 329 328 327 326 324 324 324 323 322 322 322 321 320 319 318 317 317 317 317 316 316 315 315 315 315 316 316 314 314 313 312 312 311 310 309 309 309 308 307 306 306 306 305 304 303 303 302 300 299 299
325 324 327 331 329 326 328 328 328 330 331 332 334 333 333 335 335 335 337 336 335 335 335 338 340 339 338 338 336 335 336 336 335 333 330 329 328 327 326 324 323 323 323 322 322 322 321 320 319 318 318 317 317 317 316 316 316 315 316 316 315 315 315 314 313 312 311 310 310 309 309 308 307 307 306 306 306 305 305 304 303 303 302 301 300 300
327 324 324 329 330 329 328 327 326 326 328 330 332 333 333 333 333 335 336 335 335 336 334 336 339 339 337 337 336 335 336 337 336 332 330 329 327 326 326 324 323 323 322 321 321 321 320 319 318 317 317 316 316 316 315 315 315 315 315 315 315 314 314 313 312 311 310 309 309 308 308 307 306 306 306 306 305 305 304 304 303 303 302 301 302 301
330 326 323 325 329 330 328 326 326 326 326 328 331 332 331 332 332 333 334 334 334 335 334 335 336 335 335 336 336 334 333 334 334 332 330 328 326 325 325 323 322 321 321 321 320 320 319 318 318 317 316 315 315 315 314 314 314 314 314 314 314 313 313 312 311 310 309 308 308 307 307 307 306 306 305 305 305 304 304 304 303 303 303 302 302 302
327 327 324 324 326 327 326 325 326 328 327 328 331 331 331 332 332 333 334 334 334 335 335 334 334 334 335 336 335 333 332 331 330 329 328 327 326 325 323 322 322 321 321 320 320 319 319 318 317 316 316 315 314 314 314 314 314 313 314 313 313 313 311 310 310 309 308 308 307 307 306 305 305 305 304 304 304 304 304 304 304 303 303 303 303 302
327 327 326 327 328 328 327 326 327 330 329 328 329 330 329 330 331 331 332 333 333 334 334 334 333 334 334 333 332 332 332 330 329 328 327 326 326 324 322 321 322 321 320 320 319 319 319 318 317 316 315 314 313 313 313 313 313 313 313 313 313 312 311 310 309 308 307 307 306 305 305 304 304 304 303 303 303 303 302 302 303 303 303 303 303 302
327 327 327 330 332 330 327 326 328 330 329 327 327 328 326 328 329 329 329 329 329 330 332 334 333 332 331 329 327 328 331 331 328 327 327 326 324 322 321 322 321 321 320 319 319 319 318 317 317 316 314 313 313 313 312 313 313 312 312 312 312 311 310 310 308 307 306 306 305 304 304 303 302 302 302 302 302 302 301 300 300 301 302 302 302 302
Wind_Speed
7 6 8 8 8 10 12 11 9 10 11 10 8 7 10 9 8 10 12 12 11 11 14 16 12 11 10 8 7 7 12 12 10 10 9 9 9 8 10 9 8 8 9 11 11 11 14 20 24 26 31 35 31 28 30 32 30 28 29 30 27 23 22 20 20 20 19 19 18 17 16 15 14 12 12 12 11 10 9 9 10 11 12 10 7 4
8 9 9 9 9 11 13 12 11 11 13 12 8 7 8 9 10 12 15 14 12 10 12 16 12 9 12 10 9 8 10 11 10 11 11 11 10 8 9 9 7 5 6 8 9 12 16 21 24 26 29 33 32 29 30 31 30 29 30 31 30 27 25 23 22 21 20 19 19 18 17 15 15 14 13 14 13 11 11 11 13 15 14 10 8 7
10 10 9 10 10 10 12 13 12 12 13 12 8 6 5 6 8 11 16 15 10 9 9 15 12 7 12 12 11 11 9 10 10 12 13 14 12 9 10 10 8 6 6 6 7 11 16 19 24 28 30 30 30 29 29 29 30 29 30 30 30 28 26 24 23 22 21 19 18 17 17 17 17 16 15 16 16 14 14 14 13 13 10 8 7 7
8 8 10 12 11 12 12 13 14 11 10 9 7 6 6 7 7 7 11 13 10 9 6 13 12 6 9 8 7 6 8 9 7 9 11 12 12 11 11 10 10 10 9 7 6 8 13 15 17 24 27 26 27 28 28 28 29 29 29 29 29 28 26 25 24 23 21 20 18 17 17 17 17 17 17 17 16 16 15 13 11 8 7 6 6 6
7 7 11 14 13 15 12 12 15 10 7 9 9 7 7 9 10 8 9 7 7 9 6 11 9 4 6 9 6 5 10 11 8 9 8 7 9 10 9 9 8 10 10 9 8 8 10 13 14 15 17 20 25 27 27 28 29 30 30 29 28 27 25 24 23 22 21 21 20 20 19 17 18 19 18 17 17 16 15 12 10 7 4 3 4 6
7 9 13 16 14 15 13 12 15 12 6 8 10 10 11 13 12 13 12 3 5 7 5 8 5 4 6 12 10 7 10 9 6 9 9 7 8 9 8 8 6 6 8 7 7 7 8 9 11 12 12 15 17 21 25 27 28 29 28 28 27 25 24 23 22 22 22 22 22 23 22 22 22 18 16 17 18 17 14 12 10 6 3 3 5 6
7 12 15 15 13 15 15 11 14 14 7 6 9 10 14 16 14 15 12 2 5 6 5 6 5 1 3 7 9 9 12 10 7 8 9 8 8 8 7 8 6 6 7 6 4 5 8 8 9 11 13 13 12 16 21 23 25 26 25 25 24 23 23 23 22 22 22 23 23 24 24 25 23 19 17 17 18 17 14 12 9 7 7 7 7 7
9 15 16 15 14 13 13 10 12 15 9 6 8 11 13 15 16 15 10 4 5 5 5 6 7 4 3 3 5 10 12 10 8 8 10 10 9 9 8 8 8 8 9 8 4 4 7 8 10 11 12 12 13 17 20 22 24 25 24 23 23 23 23 23 23 21 22 24 24 24 24 23 21 21 21 19 19 17 14 12 10 9 8 8 6 5
10 14 17 17 14 10 11 10 11 14 11 7 9 12 12 12 14 11 7 5 2 4 5 5 6 5 2 3 6 9 10 9 9 10 11 11 11 10 9 10 10 10 10 11 9 6 7 9 11 13 13 14 16 19 22 24 24 24 23 23 22 23 23 23 23 22 23 24 24 24 23 21 20 21 21 20 19 17 13 12 11 10 9 7 6 4
9 11 15 17 13 9 10 12 12 13 10 7 10 12 11 10 9 7 6 5 1 3 6 6 7 5 1 4 7 7 7 8 8 9 10 10 11 10 10 10 11 10 9 11 11 8 9 13 15 15 15 17 17 19 24 24 23 23 22 23 22 22 22 23 22 22 23 23 22 22 21 22 22 21 21 20 18 16 13 12 11 10 10 8 7 6
10 10 11 13 12 10 9 12 13 12 9 9 11 10 8 7 4 3 5 2 2 2 6 8 9 8 3 4 6 7 10 13 11 9 10 10 10 10 9 10 10 9 9 10 11 10 12 16 19 18 16 18 17 19 24 24 22 23 22 22 22 21 22 22 22 22 22 21 21 21 21 22 22 21 21 20 18 16 13 11 11 11 11 10 8 7
13 12 10 9 12 11 9 10 13 13 10 9 9 6 5 5 3 2 3 1 1 4 6 9 9 7 5 5 7 11 13 16 16 14 14 14 12 11 9 10 10 9 11 11 12 13 12 14 19 19 17 18 18 19 23 23 22 23 23 23 22 21 21 22 21 22 21 21 22 23 22 21 20 20 20 19 18 15 12 11 13 13 13 12 9 7
11 11 10 9 12 14 10 8 10 11 10 9 7 5 4 3 3 4 3 2 2 5 6 8 6 4 5 6 13 17 12 15 17 16 17 17 15 13 11 11 10 10 12 13 12 14 13 12 17 20 18 18 20 20 21 21 21 22 23 23 22 21 21 21 22 22 21 21 22 21 20 19 19 19 19 18 18 16 14 15 15 14 13 11 9 9
6 9 12 11 11 14 13 8 8 8 8 10 8 5 5 4 4 4 3 2 2 5 5 2 3 3 5 5 15 19 14 17 18 16 18 18 17 16 14 13 12 11 11 12 13 14 13 13 18 21 20 19 21 22 22 20 19 20 21 22 22 21 21 23 24 23 23 22 21 20 20 20 20 20 19 18 19 18 17 18 16 14 13 11 10 11
6 7 13 12 9 14 15 9 8 6 6 9 8 5 4 4 4 3 2 2 3 4 5 2 3 3 5 5 12 17 15 16 16 15 16 15 15 15 13 13 12 10 9 9 12 14 14 16 20 22 21 20 22 23 22 20 20 20 21 21 22 23 24 25 25 23 23 23 22 22 21 21 21 20 19 19 19 18 17 16 15 14 12 10 10 11
8 6 11 11 7 14 14 8 8 7 5 7 7 5 6 5 5 4 3 4 4 1 3 1 1 4 5 3 5 14 13 12 14 16 17 14 13 14 12 11 11 9 9 9 11 13 13 17 20 21 21 21 22 24 23 22 21 21 21 22 24 24 24 23 23 24 24 23 22 22 21 21 20 19 19 18 17 16 15 13 13 12 10 10 10 9
7 3 12 13 8 15 15 10 11 9 5 5 6 6 6 4 6 5 3 2 4 1 3 3 3 4 3 5 3 14 13 11 15 17 18 17 16 16 13 11 11 10 11 11 10 12 13 17 21 22 22 23 23 23 23 23 23 22 23 25 25 24 23 23 24 24 24 23 22 21 20 19 18 18 17 16 16 15 13 11 10 10 10 10 9 8
4 3 12 16 11 15 15 8 7 7 7 6 5 6 5 3 2 4 4 2 3 2 3 4 5 3 0 3 3 15 15 12 15 17 18 17 16 15 13 12 12 12 13 11 11 13 14 17 20 22 24 26 26 25 24 24 23 23 26 28 27 25 25 25 25 25 23 23 22 21 19 18 17 16 15 14 14 13 12 10 9 9 10 11 11 10
5 3 10 15 10 11 11 3 3 5 5 7 6 6 6 4 3 1 3 4 5 3 2 4 5 3 2 3 5 13 15 14 15 16 17 17 16 14 13 13 13 12 12 11 11 12 12 15 19 22 25 27 27 26 25 24 24 26 27 27 27 26 27 27 25 25 24 22 22 21 19 18 16 14 14 13 13 13 12 11 9 10 12 13 12 10
5 3 6 11 9 7 5 2 2 5 5 6 6 6 5 4 3 3 3 4 5 4 2 3 3 3 3 5 7 9 14 17 16 16 17 17 15 14 13 13 13 12 12 11 11 11 12 16 20 22 25 26 27 27 26 26 26 27 27 26 26 27 27 26 25 24 24 23 23 22 20 18 17 16 16 15 14 14 13 12 12 13 14 12 9 8
4 3 4 7 7 7 5 5 6 5 4 6 5 6 6 3 3 3 2 3 5 4 4 2 3 5 5 5 9 11 15 19 18 17 16 15 15 15 14 14 14 13 13 12 12 11 10 14 20 23 24 25 27 27 26 27 28 27 27 26 27 27 27 26 25 24 24 24 23 22 21 20 18 18 18 17 16 15 13 13 14 14 12 9 9 9
4 4 5 5 5 6 6 5 7 6 6 6 3 4 6 4 4 4 2 2 4 4 5 5 3 6 5 3 8 12 16 19 20 20 17 16 17 16 15 15 15 15 14 14 14 11 9 12 18 22 23 24 25 26 27 28 27 27 27 28 27 27 27 26 25 24 24 24 23 23 22 21 20 19 18 18 17 15 15 15 15 13 11 11 11 12
3 4 6 6 5 5 6 8 11 11 8 9 5 4 6 5 4 5 3 4 3 3 4 5 3 6 6 4 5 10 13 17 20 21 18 16 17 17 15 14 14 15 15 15 15 13 11 14 18 20 22 24 25 28 29 27 27 27 28 28 28 27 27 26 25 25 24 24 24 23 22 21 20 18 17 16 15 15 16 16 14 12 11 11 13 14
2 3 5 6 4 5 6 6 10 11 6 6 7 5 5 6 5 5 5 4 3 3 4 4 3 5 7 6 2 7 9 12 15 16 17 14 12 14 15 14 14 14 14 15 14 11 12 15 17 19 21 23 25 27 28 26 27 28 28 28 28 27 26 26 26 25 24 24 23 22 21 20 19 17 16 16 16 16 17 16 13 12 11 12 15 16
2 2 5 6 4 5 6 4 6 10 6 3 5 6 5 5 8 8 4 2 1 3 5 6 3 6 6 5 7 12 10 10 11 12 15 14 11 12 13 12 13 13 14 15 15 13 13 13 14 17 20 21 23 26 27 27 27 28 28 28 28 26 26 25 25 25 24 24 23 21 20 20 19 19 17 17 18 18 18 16 13 12 12 15 18 17
3 3 4 7 6 6 7 5 4 5 3 1 3 7 7 6 10 10 3 3 2 4 3 6 3 5 5 6 10 12 12 11 10 10 11 12 12 12 11 11 12 13 14 16 16 14 14 12 12 15 18 20 23 25 27 27 27 28 28 28 27 27 26 26 25 25 24 24 23 22 22 21 21 20 19 18 19 18 17 15 13 13 15 16 17 17
2 2 3 5 5 5 4 3 2 4 2 2 5 7 7 7 7 7 4 3 4 2 1 3 5 3 3 6 9 8 10 12 10 10 9 8 9 10 10 11 11 11 13 15 14 13 13 12 12 15 18 20 23 25 26 27 27 27 28 27 27 28 27 27 26 25 25 25 24 24 24 23 22 21 19 19 19 18 17 16 15 15 17 16 16 16
3 3 4 4 3 5 6 4 5 7 5 3 5 6 7 9 5 6 5 6 5 4 3 5 6 7 2 3 9 8 9 12 11 12 11 9 10 10 10 11 11 11 11 12 13 13 12 11 10 13 19 22 23 24 25 25 26 27 27 27 28 28 27 26 26 25 25 25 26 26 25 23 22 21 20 20 21 19 18 16 16 17 17 16 15 15
5 3 5 3 3 3 6 7 7 9 7 5 6 6 8 11 7 6 6 6 7 6 4 5 7 7 6 6 11 10 10 12 13 13 12 11 13 13 12 13 12 12 12 13 14 14 12 10 9 12 19 24 25 25 24 25 26 26 26 27 27 27 26 25 26 26 26 26 26 26 25 24 24 23 23 22 20 17 17 17 19 19 18 17 17 16
3 1 2 3 2 4 5 9 11 13 10 7 8 8 8 11 8 7 5 5 7 7 6 7 7 4 5 6 11 11 10 11 10 10 11 12 13 14 14 14 12 12 12 13 14 13 10 9 11 14 18 21 24 25 25 25 26 26 26 26 26 26 25 25 26 26 26 26 27 27 26 26 25 25 24 21 17 17 19 21 22 22 21 20 19 18
4 1 1 4 1 4 3 1 8 15 13 10 10 10 8 10 8 6 3 3 5 6 4 7 6 1 3 5 9 8 9 11 10 10 11 10 12 13 13 12 11 10 10 10 12 12 11 12 14 17 19 19 20 24 25 26 26 26 26 26 25 25 25 26 25 25 25 26 27 28 28 27 27 26 24 20 19 21 22 22 23 23 23 21 20 18
4 2 4 4 1 4 2 7 4 4 8 9 11 10 8 8 6 5 4 2 4 6 4 6 3 0 1 7 8 6 8 12 11 11 10 8 10 13 12 11 11 10 11 11 12 13 14 14 15 18 22 22 22 23 25 26 26 25 26 26 25 24 25 25 24 23 23 24 26 27 29 30 29 28 24 22 22 22 22 22 23 23 22 21 20 19
4 3 3 3 2 3 2 6 6 6 5 4 8 7 6 7 5 4 4 4 3 5 6 3 3 6 7 9 9 6 7 11 11 10 10 10 11 12 12 12 13 13 14 14 14 15 14 14 16 20 24 25 24 25 27 28 26 25 25 26 25 24 24 23 23 22 22 23 24 24 26 29 29 27 25 24 24 24 23 23 23 22 22 21 20 19
4 5 1 1 3 1 4 6 5 6 4 4 7 4 3 5 7 6 4 6 5 4 5 5 6 8 8 9 11 9 7 9 10 10 11 12 12 11 12 13 13 13 13 13 15 16 14 16 20 23 25 27 27 27 28 28 27 26 26 26 26 25 23 23 23 23 23 24 24 24 24 26 27 26 26 26 25 25 24 24 23 23 22 21 20 20
4 4 1 1 3 2 4 7 6 2 2 6 7 5 3 2 8 8 5 6 8 7 6 7 8 8 9 9 9 9 8 8 9 10 11 13 12 13 13 12 11 12 12 13 15 16 16 19 23 25 26 28 29 28 27 28 28 27 26 26 27 26 25 25 25 25 26 26 26 26 25 25 24 26 28 27 26 25 25 25 24 23 22 22 21 20
4 3 0 1 3 2 3 5 3 3 4 5 6 6 6 5 3 6 4 4 7 10 8 8 7 7 8 10 9 9 8 7 7 7 9 11 11 12 13 11 11 12 12 13 14 15 18 23 27 27 27 28 29 28 29 30 31 30 29 28 28 27 27 27 26 26 27 27 28 28 27 25 25 27 29 28 26 26 26 26 25 23 23 23 22 20
5 3 1 2 2 3 4 2 1 1 4 5 5 3 2 2 1 5 4 5 5 8 8 8 7 6 8 10 10 9 9 8 6 3 6 9 10 12 13 12 12 12 13 16 18 20 24 28 32 33 32 30 30 31 32 32 32 31 29 28 28 28 27 27 27 27 27 28 29 28 26 26 27 29 29 29 28 27 26 26 25 24 23 23 22 21
5 4 3 3 1 2 5 2 1 3 2 5 3 3 1 0 2 3 6 3 6 0 5 8 9 9 9 9 9 9 9 8 5 3 4 8 10 12 13 12 12 15 18 20 22 24 27 31 33 35 35 33 31 31 32 33 32 30 28 27 27 27 27 27 27 28 28 29 28 27 27 29 30 29 29 29 28 28 27 26 25 24 23 24 24 22
4 3 4 5 1 1 5 3 1 2 4 6 3 5 4 3 4 4 6 2 7 7 3 3 9 12 12 11 10 8 7 6 5 5 5 8 9 11 13 11 12 18 23 26 27 26 27 29 30 31 32 31 29 29 30 32 33 31 28 27 27 27 26 27 28 28 29 28 27 28 31 32 30 29 29 29 28 28 27 26 26 25 24 23 22 21
0 3 4 4 1 1 4 2 1 1 4 6 3 4 5 3 5 6 3 5 6 7 8 2 7 13 13 12 10 8 7 6 7 6 6 9 9 10 13 13 14 17 21 25 30 31 31 30 29 27 27 28 29 30 31 31 31 29 27 27 28 27 26 27 28 28 28 27 29 32 32 31 29 29 29 29 29 28 27 26 26 25 23 22 21 21
2 3 3 4 1 1 3 3 1 2 4 5 3 2 3 4 7 5 6 7 4 5 8 4 8 11 10 9 7 4 4 5 6 8 9 11 11 10 12 16 20 22 24 25 28 31 32 31 30 29 28 30 31 31 31 31 29 27 27 28 27 26 27 28 28 28 28 29 32 33 31 30 29 29 29 29 28 27 26 25 25 24 23 23 23 22
1 1 2 3 0 2 3 4 2 2 4 3 1 4 6 5 3 3 6 3 2 4 7 6 8 7 5 6 6 4 4 6 10 12 12 12 13 11 11 15 18 21 24 26 27 29 29 27 26 27 28 31 33 32 31 30 28 28 28 27 26 27 29 29 27 27 30 32 32 31 30 29 30 30 30 28 27 27 26 25 25 25 26 25 23 22
3 2 0 2 2 1 1 4 3 2 5 1 3 5 5 4 5 5 2 3 5 6 7 7 8 8 7 6 6 6 9 10 12 12 12 12 13 13 13 15 16 17 21 24 25 27 27 24 23 25 26 29 31 30 30 29 28 28 27 26 26 28 28 27 28 30 33 33 31 30 31 31 31 31 29 27 27 27 27 27 27 27 26 24 23 22
1 3 2 2 1 1 1 2 2 4 4 2 5 3 1 2 3 3 3 5 5 5 5 5 5 5 7 8 6 7 9 10 11 12 12 12 13 12 12 14 16 18 22 24 26 28 27 25 25 26 26 28 29 29 29 30 29 27 26 27 28 28 26 28 31 33 32 31 31 31 32 32 31 30 28 27 27 27 28 28 28 26 24 23 23 24
1 3 5 1 2 2 4 1 3 3 3 6 5 4 4 5 5 6 6 5 4 4 3 4 4 5 6 8 8 6 6 8 10 12 12 12 13 13 13 14 17 20 21 23 26 28 27 26 27 27 27 28 29 27 27 28 29 27 27 28 29 28 28 30 32 32 32 32 32 32 31 30 29 28 28 27 27 27 29 29 27 26 25 24 24 24
0 2 3 3 3 4 5 5 5 6 4 7 6 5 6 7 6 6 7 5 5 5 3 4 4 3 4 6 7 6 5 7 9 11 12 12 11 12 13 13 17 21 22 21 23 25 26 27 27 26 26 26 27 27 28 29 29 28 28 30 29 29 31 32 32 33 33 32 32 31 30 29 28 28 27 26 25 27 28 27 27 27 26 25 24 24
3 4 3 3 5 3 3 5 3 4 6 4 7 6 7 7 6 6 6 5 5 5 5 5 5 3 2 5 7 7 7 8 10 11 11 11 11 12 12 12 14 19 22 22 23 25 26 26 24 23 23 22 23 25 25 26 26 26 28 31 31 31 32 32 33 33 32 31 31 30 30 29 29 27 26 25 25 26 26 26 27 27 26 25 25 24
3 4 4 3 5 5 2 2 4 3 4 4 6 6 6 6 6 6 6 5 5 5 5 4 4 3 3 5 7 8 8 9 10 10 9 9 10 11 11 13 16 18 21 23 25 26 26 24 23 23 22 21 21 22 23 25 26 26 27 30 32 32 32 33 33 32 30 30 30 30 30 30 29 28 27 27 26 26 25 25 26 25 24 24 24 25
1 1 2 2 5 6 4 1 2 3 3 6 7 6 5 5 6 6 7 7 6 6 6 6 5 4 5 6 7 9 9 8 9 10 10 9 10 10 11 15 20 22 23 24 25 26 26 24 23 23 22 22 24 26 27 27 28 28 27 28 31 33 34 34 33 31 29 29 30 30 30 29 28 28 29 28 26 24 23 23 22 21 21 21 22 23
2 2 2 4 5 3 2 2 1 4 3 3 5 7 7 6 5 6 6 6 7 6 6 6 6 6 6 6 7 10 10 7 8 10 10 8 9 10 13 17 19 21 24 26 26 27 27 26 26 25 24 24 26 28 29 28 29 29 27 26 29 34 35 34 32 30 29 30 31 30 30 29 29 29 29 27 26 24 22 20 19 18 18 17 18 21
2 2 1 5 5 3 4 4 2 4 4 3 5 7 7 6 5 5 6 6 6 6 6 6 5 6 7 5 6 9 11 8 8 9 9 8 10 14 17 18 18 18 20 24 26 25 25 25 26 25 25 25 26 26 27 27 29 30 26 23 27 33 35 34 32 30 30 32 32 31 30 30 30 30 29 28 28 27 25 23 21 18 17 16 16 18
Wind_Direction
200 217 220 211 203 199 207 217 214 218 229 232 222 204 202 210 235 242 242 235 203 189 203 208 212 197 174 160 157 132 106 108 115 116 116 113 113 125 131 135 140 138 152 169 160 145 149 149 149 155 152 152 159 159 155 157 160 161 159 159 159 165 171 170 167 164 160 158 158 157 150 146 151 154 150 144 144 146 139 127 110 91 82 78 69 52
202 221 218 208 205 198 204 214 217 222 233 239 232 225 210 203 223 230 240 241 204 194 202 202 212 196 175 164 160 158 134 133 138 135 130 121 123 130 135 143 132 119 145 142 135 147 156 153 151 155 156 160 164 162 158 159 159 158 158 161 163 167 171 173 170 165 163 163 163 158 148 143 142 144 145 140 138 136 127 112 100 91 84 86 89 73
207 222 207 202 207 206 203 206 219 226 230 241 237 245 253 221 224 223 238 248 210 195 194 191 211 204 179 171 165 172 156 149 153 143 138 133 136 142 147 150 134 130 146 136 140 154 159 159 157 158 164 168 166 160 159 158 156 157 160 161 162 166 169 170 170 167 163 160 160 154 144 141 139 138 138 135 132 123 113 104 101 102 98 98 95 75
204 212 198 201 206 209 204 196 214 231 232 240 230 229 258 247 243 225 237 248 202 181 169 178 205 209 171 160 146 149 119 119 130 124 129 135 142 148 154 156 149 151 155 148 156 160 159 164 168 167 169 170 164 159 158 156 154 156 160 161 160 164 165 165 167 168 162 153 149 145 140 140 138 135 131 128 123 114 111 109 106 112 105 87 79 65
204 186 193 208 208 204 204 194 205 222 230 238 232 222 241 248 252 245 240 243 180 183 165 158 193 229 152 139 134 121 101 109 123 121 123 123 129 135 143 157 158 151 153 157 165 166 158 166 177 175 172 172 165 162 160 157 157 158 160 162 162 162 162 162 164 164 158 150 145 143 140 137 134 132 129 126 124 120 117 112 107 114 109 72 57 49
207 179 191 212 208 196 204 202 202 208 217 238 235 224 235 248 255 253 248 233 137 201 200 134 158 259 169 147 153 142 111 120 136 132 137 131 131 137 140 159 161 132 136 150 159 152 142 156 169 169 176 179 168 162 160 159 159 159 159 162 163 161 158 159 161 161 158 154 150 148 146 142 137 133 133 133 132 127 117 111 111 107 81 51 58 52
204 184 193 209 205 196 207 212 203 201 203 232 230 222 233 246 256 264 267 240 143 208 220 145 141 208 184 159 158 140 123 138 151 141 148 148 146 146 139 152 152 122 114 121 145 137 124 139 153 161 175 178 166 161 161 160 158 156 157 160 162 162 159 158 160 161 160 156 152 152 150 146 143 139 140 137 129 123 116 111 101 76 63 69 73 63
200 187 191 204 205 199 207 215 202 196 201 222 225 226 232 239 249 264 279 258 181 188 210 181 145 131 182 195 148 123 117 132 148 149 155 159 158 148 136 141 141 128 115 116 143 141 122 135 149 159 170 169 163 161 161 159 157 156 155 156 159 161 159 158 160 162 162 157 153 152 148 146 147 144 140 133 124 119 112 101 86 76 80 86 87 73
201 193 187 196 207 206 205 212 204 196 204 216 221 232 235 233 242 252 270 274 204 156 215 204 147 137 185 170 126 118 122 138 155 164 167 167 164 150 133 133 135 133 129 132 147 151 130 138 155 161 163 163 163 160 158 157 156 156 154 152 154 157 158 158 159 161 161 157 153 151 148 146 146 143 136 129 123 118 107 97 94 95 99 102 110 106
203 207 190 191 206 210 199 207 212 203 201 210 225 237 239 233 239 245 253 277 30 150 227 217 166 144 144 172 149 136 150 167 170 176 179 173 165 154 139 137 138 138 144 143 140 143 145 150 162 167 162 161 160 155 155 155 154 156 156 155 154 155 158 158 158 157 155 156 155 153 151 148 144 140 134 127 123 116 104 103 110 111 114 116 119 115
204 213 200 194 202 206 195 201 216 214 196 202 225 239 242 239 242 241 244 269 70 225 241 219 185 160 178 214 176 172 187 178 168 174 182 175 165 160 152 148 147 144 149 148 137 147 161 158 162 170 165 160 153 149 154 157 156 158 159 158 155 155 157 155 155 156 156 158 158 154 152 149 144 138 134 128 123 114 102 113 128 126 124 123 120 113
205 205 206 193 190 199 200 196 212 221 206 205 220 218 221 245 253 253 274 53 116 255 233 202 190 168 183 223 204 208 201 172 166 174 175 173 166 165 165 157 155 152 155 157 147 152 166 160 160 168 165 159 153 149 154 160 160 158 157 156 153 152 155 154 155 158 157 155 153 149 148 145 139 134 131 127 122 114 107 125 138 131 124 119 112 104
209 203 203 186 181 196 203 190 204 218 205 207 219 185 171 212 216 218 247 213 202 263 230 182 177 197 209 205 200 208 199 169 172 174 168 168 162 160 168 164 163 166 161 160 152 152 162 161 160 164 162 159 158 154 156 161 160 157 154 152 150 151 156 156 153 150 147 143 140 140 138 134 130 131 131 126 120 116 116 127 134 132 127 118 104 92
203 200 197 188 179 195 205 189 194 209 191 200 211 170 154 178 191 204 214 195 216 280 275 157 110 235 255 213 192 194 186 173 174 169 164 164 157 157 167 167 169 173 164 158 153 152 158 160 160 162 161 160 160 158 159 161 159 155 154 154 151 151 154 152 144 138 134 130 129 131 132 131 133 133 130 124 120 121 123 126 129 129 124 113 96 87
190 193 193 194 176 186 206 200 182 182 171 201 210 173 179 186 168 179 172 167 206 270 296 356 76 206 234 225 190 184 175 168 164 156 155 154 150 153 161 166 169 169 162 158 155 153 156 157 157 160 162 160 158 157 160 162 161 158 157 156 152 148 147 144 139 135 132 131 132 133 135 136 137 133 126 120 121 125 128 129 127 121 115 106 95 90
202 199 187 198 176 176 202 208 178 171 168 201 204 193 221 201 151 154 167 160 161 223 301 292 182 216 225 266 174 164 156 147 141 139 144 149 151 152 158 171 170 162 162 164 157 151 149 149 154 161 162 157 155 157 161 164 165 161 157 154 150 146 143 140 137 136 135 135 136 137 138 137 136 133 126 121 122 127 129 129 124 116 106 98 97 97
205 192 172 190 192 182 196 204 188 180 170 190 199 206 225 191 146 145 169 147 111 133 273 251 275 290 295 339 98 140 139 134 133 137 148 153 156 158 163 173 171 162 168 169 155 148 148 152 159 164 161 155 156 160 162 164 164 160 155 149 147 143 140 138 136 136 136 136 136 137 137 138 137 134 129 124 124 128 131 127 118 113 106 104 108 108
191 165 174 191 199 188 192 206 212 193 164 168 198 215 226 213 167 125 134 160 141 169 272 245 247 275 300 320 124 139 148 153 142 142 149 149 155 163 165 170 172 166 166 161 148 148 153 158 161 161 158 157 159 161 160 160 160 157 154 149 145 141 137 136 135 135 136 136 134 134 136 137 136 132 130 128 128 129 132 130 127 125 124 126 127 118
180 148 178 188 182 181 187 185 285 255 195 172 177 194 193 185 216 174 135 163 167 171 300 275 242 231 178 214 161 147 159 160 145 142 147 149 156 162 161 166 167 160 159 154 147 152 157 159 158 158 157 157 157 157 157 158 157 154 153 148 142 139 136 136 136 135 136 135 133 134 134 134 132 130 131 133 132 131 131 134 139 143 142 142 139 124
177 128 160 172 146 148 181 158 209 254 237 193 171 176 187 161 166 184 163 156 152 161 221 272 258 254 229 193 165 153 153 150 146 147 153 156 158 158 158 162 161 158 159 154 151 158 157 153 154 156 155 153 153 155 156 156 153 151 150 146 140 138 137 137 139 137 135 133 132 132 130 128 128 129 132 134 133 131 131 136 143 147 147 144 138 128
153 115 127 152 136 147 195 208 194 198 207 202 171 164 190 191 167 185 212 173 144 146 175 204 256 265 253 190 162 153 147 147 150 151 157 160 157 156 158 157 157 159 155 152 153 152 140 143 151 154 152 150 149 151 151 151 149 148 147 143 139 137 136 138 139 138 136 134 132 130 127 127 129 131 132 135 135 131 130 138 144 145 138 122 115 125
132 123 131 158 172 177 198 206 200 209 202 187 169 163 175 173 155 163 259 227 143 140 166 169 221 260 272 218 164 153 149 152 154 153 158 163 158 158 161 155 154 156 152 151 150 139 133 148 154 150 146 145 145 146 147 148 147 145 143 141 139 138 137 138 138 138 137 136 133 130 128 130 132 133 132 133 134 132 135 143 144 138 123 107 106 119
119 111 135 165 188 184 186 190 206 231 216 176 186 191 165 172 157 138 185 220 188 178 164 143 196 252 282 275 173 157 156 157 158 156 157 161 159 157 156 149 148 150 149 148 146 142 149 154 147 142 143 144 144 146 148 148 146 143 141 141 140 139 139 140 140 140 139 136 132 131 133 134 134 134 135 135 135 137 143 149 145 134 124 114 112 117
95 98 131 152 171 176 180 190 211 235 232 176 197 204 167 186 183 154 174 187 177 198 162 128 193 246 290 303 136 126 136 147 152 152 150 151 150 148 147 144 143 143 140 140 141 142 151 154 147 146 149 147 145 147 148 148 146 143 142 142 140 139 140 140 141 141 138 134 132 134 136 135 135 139 141 139 136 139 144 146 139 130 124 120 119 120
185 136 123 139 155 162 171 195 219 228 233 189 190 196 193 186 178 194 225 110 127 223 152 127 196 247 285 332 56 77 93 125 140 141 142 142 142 143 141 138 140 139 135 138 142 146 156 164 160 153 152 147 144 146 147 147 147 145 144 143 141 140 140 140 141 140 138 135 135 137 138 137 139 142 142 137 136 141 143 141 136 127 122 121 121 121
187 168 113 137 162 167 178 201 208 203 220 253 178 188 210 210 186 197 215 92 179 245 139 128 189 253 304 8 53 73 93 120 131 125 129 135 137 138 134 135 142 142 141 144 149 155 159 163 161 153 150 146 145 146 148 149 148 146 144 144 143 142 141 141 143 142 139 138 138 139 140 141 142 142 143 144 147 150 149 147 143 131 126 127 122 119
131 170 131 125 158 179 180 190 142 136 158 219 204 193 213 233 201 164 137 146 185 217 234 192 163 150 342 30 61 77 99 112 109 98 99 102 106 115 123 130 140 141 142 146 151 157 160 160 158 150 146 147 148 149 149 149 148 145 143 142 143 144 143 144 146 144 142 142 141 141 141 142 143 143 147 153 152 151 150 150 147 134 128 129 124 120
86 177 193 149 186 193 168 163 166 174 189 201 203 199 214 236 215 133 160 198 162 128 250 235 134 128 202 114 100 100 107 114 115 111 114 114 112 120 124 125 133 137 137 142 147 157 164 160 150 142 144 148 149 148 148 148 147 145 142 142 143 145 146 148 149 147 146 145 144 143 143 144 146 147 148 150 149 149 151 150 143 135 132 130 124 120
102 174 188 173 269 238 179 187 176 179 205 221 212 202 211 229 212 145 194 199 130 124 210 205 133 145 201 159 128 135 135 132 134 130 130 131 127 131 133 131 138 143 141 143 148 159 167 157 140 143 151 153 152 150 149 147 145 143 141 142 144 146 150 152 152 150 150 148 147 146 145 147 148 147 149 153 155 155 151 141 135 132 130 126 121 118
95 193 157 123 308 298 230 210 183 177 194 215 222 214 213 227 204 151 199 208 140 145 171 150 133 166 219 171 145 150 143 132 129 122 125 131 131 136 140 140 146 149 147 148 148 152 153 138 133 145 154 156 155 152 149 146 144 142 142 144 146 149 153 155 155 154 153 152 149 148 149 149 148 149 157 163 160 150 141 134 131 129 126 122 120 118
77 296 343 68 15 290 304 254 174 178 182 192 218 227 217 222 207 159 193 232 171 174 149 114 108 324 282 145 135 136 125 117 119 122 129 134 134 140 144 142 142 142 140 145 142 136 133 134 141 149 153 158 158 152 147 144 142 142 144 148 152 154 157 159 159 158 156 154 154 154 154 152 150 155 162 160 148 142 138 133 131 128 125 123 122 121
89 37 336 52 75 268 6 44 50 150 156 176 212 228 215 206 202 171 173 192 183 178 123 77 82 208 137 116 119 125 123 121 126 133 136 140 143 149 149 141 139 143 145 148 143 137 140 147 153 153 153 157 159 153 147 144 143 145 149 154 157 158 160 163 163 160 157 155 155 158 158 155 156 161 161 155 149 145 140 134 131 129 126 124 124 123
111 83 351 95 116 293 38 62 30 44 88 180 226 238 223 194 171 158 163 165 166 153 134 127 175 176 149 125 124 134 131 130 138 143 143 149 157 159 157 152 156 161 157 152 148 146 149 154 157 156 153 155 158 154 151 150 150 152 156 159 160 161 162 165 165 160 157 155 156 159 161 161 162 164 162 157 151 146 141 137 133 131 129 127 127 126
113 117 258 162 120 19 40 60 38 51 90 229 248 259 250 185 164 165 180 178 171 145 130 140 156 154 142 136 141 151 152 145 148 152 150 152 157 162 165 166 167 163 156 154 154 153 155 158 157 155 153 153 155 155 154 155 155 156 159 160 160 163 164 165 164 163 160 159 159 163 168 168 164 160 156 153 147 142 140 138 134 132 132 130 129 127
94 118 259 306 104 89 38 52 50 63 203 247 266 293 334 115 154 167 194 193 175 160 126 118 141 153 142 137 142 146 151 147 141 148 156 157 155 158 165 172 169 160 158 161 160 158 159 158 152 150 150 150 152 152 151 153 155 157 157 158 160 165 167 166 165 165 163 163 163 167 173 173 164 155 151 149 146 143 140 138 135 134 133 131 129 127
118 127 275 19 84 85 51 72 115 206 258 288 309 331 5 29 104 159 196 231 183 161 141 133 151 153 128 126 135 138 140 134 120 131 151 154 151 152 158 166 171 168 165 164 162 159 156 153 147 145 147 146 146 148 150 154 159 159 156 157 161 165 168 168 167 167 167 167 168 170 174 172 161 151 149 148 146 143 140 138 137 136 135 132 129 128
138 127 83 49 67 113 109 122 163 7 331 317 321 329 35 31 250 161 167 260 226 159 152 151 138 118 114 125 134 133 122 107 94 112 144 142 143 150 157 163 167 167 165 161 159 155 151 149 147 146 146 147 149 153 156 159 160 157 154 157 162 165 168 169 171 172 171 171 171 173 172 166 156 150 149 148 145 142 140 139 139 139 138 135 131 130
167 165 137 99 48 111 106 95 31 43 312 263 272 304 336 276 271 133 109 314 303 85 160 166 139 123 125 127 127 125 113 112 138 200 173 140 132 139 151 158 157 154 154 153 150 148 148 149 149 150 150 151 153 158 159 157 154 151 153 159 165 168 171 174 176 176 174 174 175 172 165 158 153 150 149 148 145 143 141 140 141 142 141 139 135 133
192 161 104 90 64 93 102 115 151 152 237 243 267 317 317 327 339 49 93 304 311 342 341 185 150 141 141 139 139 133 119 134 188 221 192 151 133 130 137 142 142 144 147 148 147 146 148 149 149 150 149 148 151 157 157 154 151 152 158 165 169 173 176 179 180 177 176 175 170 161 156 154 153 151 149 147 146 144 142 142 143 143 143 142 138 134
215 74 72 82 97 184 134 135 187 203 252 251 248 295 297 339 42 73 138 245 289 339 345 342 153 154 152 148 150 146 146 172 198 202 168 141 123 122 131 132 134 139 143 147 149 148 148 148 148 148 147 148 151 155 156 154 154 157 163 169 173 177 181 181 178 175 173 166 157 152 153 154 154 153 150 148 147 145 145 145 145 145 144 141 137 134
41 62 108 119 81 245 151 119 354 267 264 259 246 310 339 31 59 100 194 239 275 344 347 13 140 153 153 144 141 154 182 182 162 145 134 122 114 118 127 130 134 138 141 145 148 148 149 150 151 150 150 151 153 157 158 158 158 162 168 172 176 180 180 176 173 170 166 157 151 152 154 154 154 153 150 149 148 148 148 149 148 146 143 141 139 137
139 57 101 130 171 275 161 113 55 292 276 268 315 6 29 65 88 208 219 245 357 26 14 42 97 109 109 119 124 132 134 120 119 123 120 118 121 124 127 130 132 136 140 142 145 147 147 148 149 149 151 154 156 159 161 161 161 164 168 174 178 177 175 174 172 166 159 153 150 152 154 154 153 151 149 150 150 149 150 150 150 148 146 144 143 138
169 132 147 191 188 254 92 91 96 239 267 280 71 25 30 101 183 223 246 26 37 52 50 58 77 81 86 99 111 122 119 112 115 118 114 117 125 128 133 138 136 138 142 142 143 146 145 144 145 147 151 156 159 161 163 162 162 164 168 174 177 173 170 169 163 157 154 150 149 149 151 150 150 150 150 151 151 152 153 153 152 151 149 146 141 134
200 142 189 235 205 115 131 136 176 226 271 29 92 118 107 121 164 164 90 53 40 50 61 64 60 71 93 99 98 109 116 118 121 120 118 123 129 132 138 139 137 142 147 146 147 149 148 146 148 150 153 158 161 164 165 163 163 166 169 172 173 171 165 157 151 149 148 147 145 146 146 146 148 151 152 153 155 156 155 153 151 149 148 146 140 134
289 147 151 129 23 79 125 138 285 286 21 54 77 118 97 63 60 77 82 72 58 54 69 79 51 35 66 90 97 103 114 126 126 122 124 132 135 137 141 140 139 144 147 148 150 152 151 150 151 152 155 159 164 166 167 166 166 167 169 172 172 169 161 151 145 144 144 143 143 143 144 145 148 151 153 157 160 157 153 151 150 149 149 148 143 137
215 123 131 114 81 73 75 55 358 329 8 58 66 65 67 60 50 62 69 64 60 57 69 100 94 48 51 82 95 103 115 126 123 121 128 133 135 137 138 138 141 144 146 147 148 150 151 151 152 153 155 160 166 169 171 171 169 165 166 170 169 162 156 149 144 141 141 142 142 143 144 146 148 152 157 161 161 157 154 153 152 151 153 152 148 144
353 17 30 97 109 91 46 50 47 313 313 26 62 51 48 54 48 52 64 64 66 72 83 113 131 145 114 93 93 99 108 112 114 122 129 130 133 138 137 138 144 146 148 149 149 149 149 150 151 152 154 159 164 164 163 163 160 156 158 162 160 155 152 148 143 141 142 142 142 144 146 148 151 155 159 159 157 156 156 156 156 156 159 159 156 154
323 1 11 46 84 96 110 126 134 186 288 357 59 57 45 53 48 41 46 46 51 62 66 85 108 116 105 95 97 107 111 109 113 121 125 128 135 140 141 143 146 148 150 151 151 150 150 151 152 153 154 155 156 155 154 154 154 154 154 155 155 152 149 147 145 144 143 144 144 147 149 151 155 156 156 155 156 157 159 162 164 165 167 168 166 164
261 335 339 51 81 92 103 96 116 116 21 5 36 46 32 43 56 47 35 31 36 39 32 30 43 63 83 93 99 108 114 115 120 122 121 127 136 139 145 150 152 153 154 154 154 154 154 154 155 155 154 153 155 159 163 162 161 160 156 155 156 153 148 146 146 146 146 146 147 148 152 155 157 157 156 156 156 157 160 165 170 172 172 172 173 173
62 348 342 96 99 105 150 202 188 128 96 20 37 41 19 20 53 58 41 32 30 27 27 28 27 32 55 82 101 111 116 121 127 125 122 128 136 139 146 152 155 157 157 156 157 160 159 159 160 158 158 159 159 160 164 165 165 164 160 157 159 157 151 148 148 147 147 149 149 152 156 158 159 160 160 158 155 151 148 151 158 164 165 165 169 172
41 340 6 116 129 181 196 194 179 129 116 79 59 47 21 15 39 54 47 36 24 19 30 41 38 29 30 47 91 117 126 130 130 126 121 125 137 142 147 152 155 158 158 157 158 161 161 162 162 159 157 158 157 154 158 165 170 170 166 163 162 160 156 153 151 149 150 152 153 157 161 160 160 161 158 154 151 147 140 134 134 138 145 149 155 164